,,Stat6,,Stat2,,Stat8,,Stat9,,Stat10,,Wind1,,Wind1,
time,status,PA1M_AVG,status,PR1M_SUM,status,RH1M_AVG,status,SR1M_AVG,status,TA1M_AVG,status,W1dAve1m,status,W1sAve1m,
2004-05-01, 00:00:00,VALID,915.997,VALID,0,VALID,99.5043,VALID,-0.0169808,VALID,20.6366,VALID,34,VALID,0.85404,
2004-05-01, 00:01:00,VALID,915.978,VALID,0,VALID,99.5387,VALID,-0.0169808,VALID,20.5874,VALID,36,VALID,0.777435,
2004-05-01, 00:02:00,VALID,915.965,VALID,0,VALID,99.5616,VALID,-0.0339617,VALID,20.5685,VALID,34,VALID,0.731468,
2004-05-01, 00:03:00,VALID,915.963,VALID,0,VALID,99.62,VALID,0.0509425,VALID,20.5578,VALID,32,VALID,0.699574,
2004-05-01, 00:04:00,VALID,915.951,VALID,0,VALID,99.6468,VALID,0.0849042,VALID,20.5247,VALID,32,VALID,0.679874,
2004-05-01, 00:05:00,VALID,915.942,VALID,0,VALID,99.7205,VALID,0.0679233,VALID,20.5376,VALID,24,VALID,0.648247,
2004-05-01, 00:06:00,VALID,915.938,VALID,0,VALID,99.7739,VALID,0.0679233,VALID,20.5282,VALID,21,VALID,0.723958,
2004-05-01, 00:07:00,VALID,915.926,VALID,0,VALID,99.826,VALID,0.0509425,VALID,20.5177,VALID,26,VALID,0.685826,
2004-05-01, 00:08:00,VALID,915.935,VALID,0,VALID,99.8845,VALID,0.0679233,VALID,20.528,VALID,29,VALID,0.609375,
2004-05-01, 00:09:00,VALID,915.933,VALID,0,VALID,99.8833,VALID,0.0679233,VALID,20.532,VALID,28,VALID,0.695685,
2004-05-01, 00:10:00,VALID,915.937,VALID,0,VALID,99.8146,VALID,0.0509425,VALID,20.4991,VALID,31,VALID,0.727865,
2004-05-01, 00:11:00,VALID,915.934,VALID,0,VALID,99.8731,VALID,0.0679233,VALID,20.4922,VALID,31,VALID,0.46657,
2004-05-01, 00:12:00,VALID,915.927,VALID,0,VALID,99.8438,VALID,0.0509425,VALID,20.4862,VALID,31,VALID,0.298828,
2004-05-01, 00:13:00,VALID,915.92,VALID,0,VALID,99.8884,VALID,0.0509425,VALID,20.4932,VALID,31,VALID,0.325521,
2004-05-01, 00:14:00,VALID,915.915,VALID,0,VALID,99.8871,VALID,0.0339617,VALID,20.4897,VALID,31,VALID,0.109557,
2004-05-01, 00:15:00,VALID,915.891,VALID,0,VALID,99.9227,VALID,0.101885,VALID,20.4991,VALID,31,VALID,0,
2004-05-01, 00:16:00,VALID,915.883,VALID,0,VALID,99.8718,VALID,0.0679233,VALID,20.4989,VALID,31,VALID,0,
2004-05-01, 00:17:00,VALID,915.856,VALID,0,VALID,99.8553,VALID,0.0509425,VALID,20.4924,VALID,31,VALID,0.000952744,
2004-05-01, 00:18:00,VALID,915.844,VALID,0,VALID,99.8527,VALID,0.0679233,VALID,20.483,VALID,31,VALID,0.102983,
2004-05-01, 00:19:00,VALID,915.843,VALID,0,VALID,99.821,VALID,0.0509425,VALID,20.4666,VALID,31,VALID,0.121189,
2004-05-01, 00:20:00,VALID,915.846,VALID,0,VALID,99.8044,VALID,0.0849042,VALID,20.4634,VALID,31,VALID,0.198946,
2004-05-01, 00:21:00,VALID,915.838,VALID,0,VALID,99.8909,VALID,0.0679233,VALID,20.477,VALID,31,VALID,0.1121,
2004-05-01, 00:22:00,VALID,915.838,VALID,0,VALID,99.9392,VALID,0.0339617,VALID,20.4865,VALID,31,VALID,0.0522017,
2004-05-01, 00:23:00,VALID,915.847,VALID,0,VALID,99.9062,VALID,0.0679233,VALID,20.4967,VALID,31,VALID,0.243641,
2004-05-01, 00:24:00,VALID,915.848,VALID,0,VALID,99.8896,VALID,0.0849042,VALID,20.4803,VALID,31,VALID,0.304497,
2004-05-01, 00:25:00,VALID,915.828,VALID,0,VALID,99.8744,VALID,0.0679233,VALID,20.4641,VALID,31,VALID,0.232887,
2004-05-01, 00:26:00,VALID,915.823,VALID,0,VALID,99.9163,VALID,0.101885,VALID,20.4676,VALID,31,VALID,0.0104167,
2004-05-01, 00:27:00,VALID,915.802,VALID,0,VALID,99.9354,VALID,0.0849042,VALID,20.4634,VALID,31,VALID,0.231944,
2004-05-01, 00:28:00,VALID,915.781,VALID,0,VALID,99.9163,VALID,0.101885,VALID,20.4572,VALID,31,VALID,0.0987723,
2004-05-01, 00:29:00,VALID,915.758,VALID,0,VALID,99.9557,VALID,0.0679233,VALID,20.4706,VALID,29,VALID,0.128551,
2004-05-01, 00:30:00,VALID,915.737,VALID,0,VALID,99.9977,VALID,0.0849042,VALID,20.4865,VALID,25,VALID,0.272693,
2004-05-01, 00:31:00,VALID,915.739,VALID,0,VALID,100,VALID,0.0509425,VALID,20.4999,VALID,9,VALID,0.212209,
2004-05-01, 00:32:00,VALID,915.731,VALID,0,VALID,100,VALID,0.0509425,VALID,20.5126,VALID,9,VALID,0.117378,
2004-05-01, 00:33:00,VALID,915.734,VALID,0,VALID,100,VALID,0.0339617,VALID,20.5322,VALID,9,VALID,0,
2004-05-01, 00:34:00,VALID,915.725,VALID,0,VALID,100,VALID,-0.0339617,VALID,20.5564,VALID,9,VALID,0,
2004-05-01, 00:35:00,VALID,915.729,VALID,0,VALID,100,VALID,-0.0339617,VALID,20.5683,VALID,9,VALID,0,
2004-05-01, 00:36:00,VALID,915.714,VALID,0,VALID,100,VALID,-0.0339617,VALID,20.5758,VALID,9,VALID,0,
2004-05-01, 00:37:00,VALID,915.697,VALID,0,VALID,100,VALID,-0.0679233,VALID,20.5497,VALID,9,VALID,0,
2004-05-01, 00:38:00,VALID,915.698,VALID,0,VALID,100,VALID,-0.0849042,VALID,20.5531,VALID,9,VALID,0,
2004-05-01, 00:39:00,VALID,915.663,VALID,0,VALID,100,VALID,-0.0169808,VALID,20.5559,VALID,9,VALID,0,
2004-05-01, 00:40:00,VALID,915.646,VALID,0,VALID,100,VALID,-0.0849042,VALID,20.5725,VALID,9,VALID,0,
2004-05-01, 00:41:00,VALID,915.628,VALID,0,VALID,100,VALID,-0.0339617,VALID,20.579,VALID,9,VALID,0,
2004-05-01, 00:42:00,VALID,915.609,VALID,0,VALID,100,VALID,-0.0339617,VALID,20.5852,VALID,9,VALID,0,
2004-05-01, 00:43:00,VALID,915.575,VALID,0,VALID,100,VALID,-0.101885,VALID,20.5857,VALID,9,VALID,0,
2004-05-01, 00:44:00,VALID,915.571,VALID,0,VALID,100,VALID,-0.0509425,VALID,20.576,VALID,9,VALID,0,
2004-05-01, 00:45:00,VALID,915.553,VALID,0,VALID,100,VALID,-0.0339617,VALID,20.5593,VALID,9,VALID,0,
2004-05-01, 00:46:00,VALID,915.537,VALID,0,VALID,100,VALID,-0.0169808,VALID,20.5497,VALID,9,VALID,0.0257994,
2004-05-01, 00:47:00,VALID,915.532,VALID,0,VALID,100,VALID,-0.0339617,VALID,20.5499,VALID,9,VALID,0.266158,
2004-05-01, 00:48:00,VALID,915.505,VALID,0,VALID,100,VALID,-0.0339617,VALID,20.5534,VALID,9,VALID,0.395833,
2004-05-01, 00:49:00,VALID,915.502,VALID,0,VALID,100,VALID,-0.0339617,VALID,20.5559,VALID,9,VALID,0.493037,
2004-05-01, 00:50:00,VALID,915.486,VALID,0,VALID,100,VALID,-0.0339617,VALID,20.575,VALID,9,VALID,0.610417,
2004-05-01, 00:51:00,VALID,915.462,VALID,0,VALID,100,VALID,-0.0169808,VALID,20.5553,VALID,9,VALID,0.655362,
2004-05-01, 00:52:00,VALID,915.455,VALID,0,VALID,100,VALID,-0.0169808,VALID,20.5365,VALID,9,VALID,0.585938,
2004-05-01, 00:53:00,VALID,915.436,VALID,0,VALID,100,VALID,-0.0169808,VALID,20.53,VALID,9,VALID,0.500781,
2004-05-01, 00:54:00,VALID,915.422,VALID,0,VALID,100,VALID,-0.0339617,VALID,20.5524,VALID,9,VALID,0.322917,
2004-05-01, 00:55:00,VALID,915.403,VALID,0,VALID,100,VALID,-0.0339617,VALID,20.5656,VALID,9,VALID,0.128811,
2004-05-01, 00:56:00,VALID,915.379,VALID,0,VALID,100,VALID,-0.0339617,VALID,20.5917,VALID,9,VALID,0.10665,
2004-05-01, 00:57:00,VALID,915.359,VALID,0,VALID,100,VALID,-0.0509425,VALID,20.6172,VALID,9,VALID,0.0379464,
2004-05-01, 00:58:00,VALID,915.347,VALID,0,VALID,100,VALID,-0.0169808,VALID,20.6339,VALID,9,VALID,0.0760789,
2004-05-01, 00:59:00,VALID,915.326,VALID,0,VALID,100,VALID,-0.0509425,VALID,20.6433,VALID,9,VALID,0.360647,
2004-05-01, 01:00:00,VALID,915.319,VALID,0,VALID,100,VALID,-0.0679233,VALID,20.6501,VALID,9,VALID,0.381359,
2004-05-01, 01:01:00,VALID,915.323,VALID,0,VALID,100,VALID,0,VALID,20.6721,VALID,9,VALID,0.422247,
2004-05-01, 01:02:00,VALID,915.334,VALID,0,VALID,100,VALID,-0.0509425,VALID,20.6915,VALID,12,VALID,0.52474,
2004-05-01, 01:03:00,VALID,915.332,VALID,0,VALID,100,VALID,-0.0679233,VALID,20.6953,VALID,13,VALID,0.664807,
2004-05-01, 01:04:00,VALID,915.337,VALID,0,VALID,100,VALID,-0.0169808,VALID,20.6915,VALID,15,VALID,0.664063,
2004-05-01, 01:05:00,VALID,915.325,VALID,0,VALID,100,VALID,-0.0169808,VALID,20.6886,VALID,10,VALID,0.876598,
2004-05-01, 01:06:00,VALID,915.31,VALID,0,VALID,100,VALID,-0.0679233,VALID,20.6756,VALID,12,VALID,0.425174,
2004-05-01, 01:07:00,VALID,915.296,VALID,0,VALID,100,VALID,-0.0679233,VALID,20.6692,VALID,12,VALID,0.414063,
2004-05-01, 01:08:00,VALID,915.278,VALID,0,VALID,100,VALID,-0.0679233,VALID,20.6657,VALID,12,VALID,0.28016,
2004-05-01, 01:09:00,VALID,915.243,VALID,0,VALID,100,VALID,0,VALID,20.6915,VALID,12,VALID,0.233259,
2004-05-01, 01:10:00,VALID,915.206,VALID,0,VALID,100,VALID,0,VALID,20.7112,VALID,12,VALID,0.293341,
2004-05-01, 01:11:00,VALID,915.185,VALID,0,VALID,100,VALID,-0.0169808,VALID,20.7241,VALID,12,VALID,0.30506,
2004-05-01, 01:12:00,VALID,915.15,VALID,0,VALID,100,VALID,-0.0509425,VALID,20.7045,VALID,12,VALID,0.127046,
2004-05-01, 01:13:00,VALID,915.118,VALID,0,VALID,100,VALID,-0.0509425,VALID,20.7211,VALID,12,VALID,0.317587,
2004-05-01, 01:14:00,VALID,915.085,VALID,0,VALID,100,VALID,-0.0169808,VALID,20.7238,VALID,12,VALID,0.304315,
2004-05-01, 01:15:00,VALID,915.063,VALID,0,VALID,100,VALID,-0.0679233,VALID,20.7144,VALID,12,VALID,0.52983,
2004-05-01, 01:16:00,VALID,915.044,VALID,0,VALID,100,VALID,-0.0509425,VALID,20.6856,VALID,12,VALID,0.426067,
2004-05-01, 01:17:00,VALID,915.02,VALID,0,VALID,100,VALID,-0.0679233,VALID,20.6789,VALID,12,VALID,0.24814,
2004-05-01, 01:18:00,VALID,914.997,VALID,0,VALID,100,VALID,-0.0509425,VALID,20.6659,VALID,12,VALID,0.500586,
2004-05-01, 01:19:00,VALID,914.988,VALID,0,VALID,100,VALID,-0.0679233,VALID,20.6525,VALID,13,VALID,0.515625,
2004-05-01, 01:20:00,VALID,914.972,VALID,0,VALID,100,VALID,-0.0679233,VALID,20.6075,VALID,13,VALID,0.542151,
2004-05-01, 01:21:00,VALID,914.949,VALID,0,VALID,100,VALID,-0.0169808,VALID,20.5976,VALID,20,VALID,0.795277,
2004-05-01, 01:22:00,VALID,914.924,VALID,0,VALID,100,VALID,-0.0339617,VALID,20.5941,VALID,33,VALID,0.916061,
2004-05-01, 01:23:00,VALID,914.915,VALID,0,VALID,100,VALID,-0.0169808,VALID,20.5653,VALID,45,VALID,0.717416,
2004-05-01, 01:24:00,VALID,914.891,VALID,0,VALID,100,VALID,-0.0509425,VALID,20.5327,VALID,45,VALID,0.552269,
2004-05-01, 01:25:00,VALID,914.866,VALID,0,VALID,100,VALID,-0.0169808,VALID,20.5228,VALID,44,VALID,0.504084,
2004-05-01, 01:26:00,VALID,914.855,VALID,0,VALID,100,VALID,-0.0169808,VALID,20.5034,VALID,44,VALID,0.340872,
2004-05-01, 01:27:00,VALID,914.83,VALID,0,VALID,100,VALID,0,VALID,20.5034,VALID,44,VALID,0.0355283,
2004-05-01, 01:28:00,VALID,914.825,VALID,0,VALID,100,VALID,0,VALID,20.5096,VALID,44,VALID,0.0939405,
2004-05-01, 01:29:00,VALID,914.796,VALID,0,VALID,100,VALID,-0.0339617,VALID,20.5203,VALID,42,VALID,0.456759,
2004-05-01, 01:30:00,VALID,914.786,VALID,0,VALID,100,VALID,-0.0339617,VALID,20.4875,VALID,34,VALID,0.658789,
2004-05-01, 01:31:00,VALID,914.769,VALID,0,VALID,100,VALID,-0.0169808,VALID,20.449,VALID,19,VALID,0.476004,
2004-05-01, 01:32:00,VALID,914.757,VALID,0,VALID,100,VALID,-0.0169808,VALID,20.4453,VALID,19,VALID,0.3367,
2004-05-01, 01:33:00,VALID,914.749,VALID,0,VALID,100,VALID,-0.0339617,VALID,20.4264,VALID,18,VALID,0.350291,
2004-05-01, 01:34:00,VALID,914.723,VALID,0,VALID,100,VALID,-0.0169808,VALID,20.404,VALID,15,VALID,0.350347,
2004-05-01, 01:35:00,VALID,914.713,VALID,0,VALID,100,VALID,-0.0339617,VALID,20.3556,VALID,15,VALID,0.215116,
2004-05-01, 01:36:00,VALID,914.689,VALID,0,VALID,100,VALID,-0.0339617,VALID,20.3454,VALID,15,VALID,0.160061,
2004-05-01, 01:37:00,VALID,914.669,VALID,0,VALID,100,VALID,0,VALID,20.3489,VALID,15,VALID,0,
2004-05-01, 01:38:00,VALID,914.647,VALID,0,VALID,100,VALID,-0.0339617,VALID,20.3392,VALID,15,VALID,0.171317,
2004-05-01, 01:39:00,VALID,914.637,VALID,0,VALID,100,VALID,0,VALID,20.3163,VALID,15,VALID,0.338889,
2004-05-01, 01:40:00,VALID,914.64,VALID,0,VALID,100,VALID,-0.0849042,VALID,20.3268,VALID,15,VALID,0.474095,
2004-05-01, 01:41:00,VALID,914.661,VALID,0,VALID,100,VALID,-0.0339617,VALID,20.3141,VALID,15,VALID,0.281064,
2004-05-01, 01:42:00,VALID,914.657,VALID,0,VALID,100,VALID,0,VALID,20.2969,VALID,15,VALID,0.0502232,
2004-05-01, 01:43:00,VALID,914.667,VALID,0,VALID,100,VALID,-0.0679233,VALID,20.2902,VALID,15,VALID,0,
2004-05-01, 01:44:00,VALID,914.667,VALID,0,VALID,100,VALID,-0.0339617,VALID,20.2845,VALID,359,VALID,0.331555,
2004-05-01, 01:45:00,VALID,914.677,VALID,0,VALID,100,VALID,-0.0509425,VALID,20.242,VALID,293,VALID,0.636364,
2004-05-01, 01:46:00,VALID,914.686,VALID,0,VALID,100,VALID,-0.0509425,VALID,20.249,VALID,290,VALID,0.514323,
2004-05-01, 01:47:00,VALID,914.695,VALID,0,VALID,100,VALID,-0.0339617,VALID,20.2587,VALID,290,VALID,0.431818,
2004-05-01, 01:48:00,VALID,914.69,VALID,0,VALID,100,VALID,0,VALID,20.2751,VALID,290,VALID,0.295541,
2004-05-01, 01:49:00,VALID,914.68,VALID,0,VALID,100,VALID,-0.0509425,VALID,20.2913,VALID,290,VALID,0.0699574,
2004-05-01, 01:50:00,VALID,914.664,VALID,0,VALID,100,VALID,-0.0509425,VALID,20.2947,VALID,290,VALID,0,
2004-05-01, 01:51:00,VALID,914.647,VALID,0,VALID,100,VALID,-0.0509425,VALID,20.3139,VALID,290,VALID,0,
2004-05-01, 01:52:00,VALID,914.625,VALID,0,VALID,100,VALID,-0.0509425,VALID,20.3332,VALID,290,VALID,0.0659722,
2004-05-01, 01:53:00,VALID,914.594,VALID,0,VALID,100,VALID,-0.0509425,VALID,20.3427,VALID,290,VALID,0.0777699,
2004-05-01, 01:54:00,VALID,914.573,VALID,0,VALID,100,VALID,-0.0169808,VALID,20.376,VALID,290,VALID,0.222284,
2004-05-01, 01:55:00,VALID,914.572,VALID,0,VALID,100,VALID,-0.0169808,VALID,20.3849,VALID,290,VALID,0.0552734,
2004-05-01, 01:56:00,VALID,914.538,VALID,0,VALID,100,VALID,-0.0509425,VALID,20.3847,VALID,290,VALID,0,
2004-05-01, 01:57:00,VALID,914.527,VALID,0,VALID,100,VALID,-0.0169808,VALID,20.3949,VALID,290,VALID,0,
2004-05-01, 01:58:00,VALID,914.516,VALID,0,VALID,100,VALID,-0.0169808,VALID,20.4003,VALID,290,VALID,0,
2004-05-01, 01:59:00,VALID,914.511,VALID,0,VALID,100,VALID,-0.0339617,VALID,20.3938,VALID,290,VALID,0,
2004-05-01, 02:00:00,VALID,914.522,VALID,0,VALID,100,VALID,-0.0849042,VALID,20.4046,VALID,290,VALID,0,
2004-05-01, 02:01:00,VALID,914.511,VALID,0,VALID,100,VALID,-0.0169808,VALID,20.4078,VALID,290,VALID,0,
2004-05-01, 02:02:00,VALID,914.494,VALID,0,VALID,100,VALID,-0.0339617,VALID,20.411,VALID,290,VALID,0,
2004-05-01, 02:03:00,VALID,914.483,VALID,0,VALID,100,VALID,-0.0679233,VALID,20.3946,VALID,290,VALID,0,
2004-05-01, 02:04:00,VALID,914.475,VALID,0,VALID,100,VALID,-0.0169808,VALID,20.4143,VALID,290,VALID,0,
2004-05-01, 02:05:00,VALID,914.456,VALID,0,VALID,100,VALID,-0.0339617,VALID,20.4433,VALID,290,VALID,0,
2004-05-01, 02:06:00,VALID,914.428,VALID,0,VALID,100,VALID,-0.0339617,VALID,20.4331,VALID,290,VALID,0,
2004-05-01, 02:07:00,VALID,914.406,VALID,0,VALID,100,VALID,0,VALID,20.4401,VALID,290,VALID,0,
2004-05-01, 02:08:00,VALID,914.389,VALID,0,VALID,100,VALID,-0.0509425,VALID,20.4366,VALID,290,VALID,0,
2004-05-01, 02:09:00,VALID,914.369,VALID,0,VALID,100,VALID,-0.0509425,VALID,20.4463,VALID,290,VALID,0,
2004-05-01, 02:10:00,VALID,914.371,VALID,0,VALID,100,VALID,-0.0509425,VALID,20.4587,VALID,290,VALID,0,
2004-05-01, 02:11:00,VALID,914.359,VALID,0,VALID,100,VALID,-0.0509425,VALID,20.4751,VALID,290,VALID,0,
2004-05-01, 02:12:00,VALID,914.34,VALID,0,VALID,100,VALID,-0.0339617,VALID,20.4724,VALID,290,VALID,0,
2004-05-01, 02:13:00,VALID,914.324,VALID,0,VALID,100,VALID,-0.0169808,VALID,20.442,VALID,310,VALID,0.364644,
2004-05-01, 02:14:00,VALID,914.33,VALID,0,VALID,100,VALID,-0.0339617,VALID,20.446,VALID,343,VALID,0.393043,
2004-05-01, 02:15:00,VALID,914.296,VALID,0,VALID,100,VALID,-0.0509425,VALID,20.4488,VALID,343,VALID,0.170632,
2004-05-01, 02:16:00,VALID,914.292,VALID,0,VALID,100,VALID,-0.0509425,VALID,20.4557,VALID,343,VALID,0.105097,
2004-05-01, 02:17:00,VALID,914.297,VALID,0,VALID,100,VALID,-0.0679233,VALID,20.449,VALID,343,VALID,0.203125,
2004-05-01, 02:18:00,VALID,914.299,VALID,0,VALID,100,VALID,-0.0679233,VALID,20.4597,VALID,343,VALID,0.235305,
2004-05-01, 02:19:00,VALID,914.296,VALID,0,VALID,100,VALID,-0.0339617,VALID,20.4493,VALID,343,VALID,0.0615473,
2004-05-01, 02:20:00,VALID,914.306,VALID,0,VALID,100,VALID,-0.0339617,VALID,20.4525,VALID,343,VALID,0.0636161,
2004-05-01, 02:21:00,VALID,914.295,VALID,0,VALID,100,VALID,-0.0509425,VALID,20.4686,VALID,343,VALID,0.166109,
2004-05-01, 02:22:00,VALID,914.285,VALID,0,VALID,100,VALID,-0.0679233,VALID,20.4789,VALID,343,VALID,0.0503049,
2004-05-01, 02:23:00,VALID,914.28,VALID,0,VALID,100,VALID,-0.0849042,VALID,20.4622,VALID,343,VALID,0.0626736,
2004-05-01, 02:24:00,VALID,914.254,VALID,0,VALID,100,VALID,0,VALID,20.4555,VALID,343,VALID,0.0558036,
2004-05-01, 02:25:00,VALID,914.247,VALID,0,VALID,100,VALID,-0.0679233,VALID,20.4135,VALID,343,VALID,0.0172602,
2004-05-01, 02:26:00,VALID,914.239,VALID,0,VALID,100,VALID,-0.0679233,VALID,20.3976,VALID,343,VALID,0.0625,
2004-05-01, 02:27:00,VALID,914.228,VALID,0,VALID,100,VALID,-0.0339617,VALID,20.3712,VALID,343,VALID,0.0275298,
2004-05-01, 02:28:00,VALID,914.231,VALID,0,VALID,100,VALID,-0.0339617,VALID,20.3497,VALID,343,VALID,0.0757631,
2004-05-01, 02:29:00,VALID,914.246,VALID,0,VALID,99.9591,VALID,-0.0339617,VALID,20.3163,VALID,343,VALID,0.190589,
2004-05-01, 02:30:00,VALID,914.257,VALID,0,VALID,99.8515,VALID,-0.0509425,VALID,20.3009,VALID,343,VALID,0.182812,
2004-05-01, 02:31:00,VALID,914.263,VALID,0,VALID,99.7993,VALID,-0.0679233,VALID,20.288,VALID,343,VALID,0.0134943,
2004-05-01, 02:32:00,VALID,914.285,VALID,0,VALID,99.8464,VALID,-0.0509425,VALID,20.2845,VALID,343,VALID,0.177202,
2004-05-01, 02:33:00,VALID,914.296,VALID,0,VALID,99.8693,VALID,-0.0339617,VALID,20.3099,VALID,345,VALID,0.430259,
2004-05-01, 02:34:00,VALID,914.295,VALID,0,VALID,99.779,VALID,-0.0509425,VALID,20.3144,VALID,345,VALID,0.146234,
2004-05-01, 02:35:00,VALID,914.296,VALID,0,VALID,99.8375,VALID,-0.0169808,VALID,20.3236,VALID,345,VALID,0,
2004-05-01, 02:36:00,VALID,914.293,VALID,0,VALID,99.9112,VALID,0,VALID,20.3462,VALID,345,VALID,0.00101902,
2004-05-01, 02:37:00,VALID,914.305,VALID,0,VALID,99.8858,VALID,-0.0339617,VALID,20.3658,VALID,345,VALID,0,
2004-05-01, 02:38:00,VALID,914.315,VALID,0,VALID,99.704,VALID,-0.0679233,VALID,20.3655,VALID,345,VALID,0,
2004-05-01, 02:39:00,VALID,914.312,VALID,0,VALID,99.6404,VALID,-0.0339617,VALID,20.3397,VALID,327,VALID,0.275534,
2004-05-01, 02:40:00,VALID,914.329,VALID,0,VALID,99.5819,VALID,-0.0509425,VALID,20.3397,VALID,345,VALID,0.738281,
2004-05-01, 02:41:00,VALID,914.331,VALID,0,VALID,99.6353,VALID,-0.0339617,VALID,20.3685,VALID,353,VALID,0.525484,
2004-05-01, 02:42:00,VALID,914.318,VALID,0,VALID,99.5641,VALID,-0.0509425,VALID,20.3847,VALID,355,VALID,0.0764509,
2004-05-01, 02:43:00,VALID,914.312,VALID,0,VALID,99.5781,VALID,-0.0849042,VALID,20.3876,VALID,355,VALID,0.0960366,
2004-05-01, 02:44:01,VALID,914.314,VALID,0,VALID,99.5832,VALID,-0.0679233,VALID,20.404,VALID,357,VALID,0.564596,
2004-05-01, 02:45:00,VALID,914.32,VALID,0,VALID,99.6175,VALID,-0.0339617,VALID,20.4038,VALID,360,VALID,0.392857,
2004-05-01, 02:46:01,VALID,914.325,VALID,0,VALID,99.6544,VALID,-0.0339617,VALID,20.4358,VALID,360,VALID,0.24535,
2004-05-01, 02:47:00,VALID,914.327,VALID,0,VALID,99.5132,VALID,-0.0339617,VALID,20.4207,VALID,360,VALID,0.114211,
2004-05-01, 02:48:01,VALID,914.335,VALID,0,VALID,99.5247,VALID,-0.0509425,VALID,20.4137,VALID,234,VALID,0.469494,
2004-05-01, 02:49:00,VALID,914.338,VALID,0,VALID,99.5984,VALID,-0.0169808,VALID,20.4075,VALID,199,VALID,0.584608,
2004-05-01, 02:50:00,VALID,914.352,VALID,0,VALID,99.6595,VALID,-0.0169808,VALID,20.4175,VALID,194,VALID,0.254002,
2004-05-01, 02:51:01,VALID,914.346,VALID,0,VALID,99.6849,VALID,-0.0169808,VALID,20.404,VALID,194,VALID,0.0513139,
2004-05-01, 02:52:00,VALID,914.346,VALID,0,VALID,99.7421,VALID,-0.0339617,VALID,20.4008,VALID,194,VALID,0.457508,
2004-05-01, 02:53:00,VALID,914.345,VALID,0,VALID,99.821,VALID,-0.0339617,VALID,20.4239,VALID,248,VALID,0.58327,
2004-05-01, 02:54:00,VALID,914.33,VALID,0,VALID,99.9278,VALID,-0.0169808,VALID,20.4267,VALID,23,VALID,0.781445,
2004-05-01, 02:55:00,VALID,914.313,VALID,0,VALID,99.9634,VALID,-0.0339617,VALID,20.449,VALID,16,VALID,0.995028,
2004-05-01, 02:56:01,VALID,914.301,VALID,0,VALID,99.8896,VALID,-0.0509425,VALID,20.4463,VALID,4,VALID,0.949306,
2004-05-01, 02:57:00,VALID,914.301,VALID,0,VALID,99.8527,VALID,-0.0169808,VALID,20.4398,VALID,12,VALID,1.02382,
2004-05-01, 02:58:00,VALID,914.313,VALID,0,VALID,99.8667,VALID,-0.0849042,VALID,20.4234,VALID,14,VALID,0.884084,
2004-05-01, 02:59:00,VALID,914.3,VALID,0,VALID,99.9125,VALID,-0.0169808,VALID,20.4396,VALID,20,VALID,1.06734,
2004-05-01, 03:00:00,VALID,914.273,VALID,0,VALID,99.9481,VALID,-0.0339617,VALID,20.4296,VALID,15,VALID,1.35423,
2004-05-01, 03:01:01,VALID,914.279,VALID,0,VALID,99.9758,VALID,-0.0169808,VALID,20.4428,VALID,14,VALID,1.26804,
2004-05-01, 03:02:00,VALID,914.299,VALID,0,VALID,99.9329,VALID,-0.0169808,VALID,20.4296,VALID,12,VALID,1.08916,
2004-05-01, 03:03:00,VALID,914.311,VALID,0,VALID,99.9329,VALID,0.0169808,VALID,20.4162,VALID,14,VALID,0.766578,
2004-05-01, 03:04:00,VALID,914.329,VALID,0,VALID,99.9596,VALID,0.0679233,VALID,20.4117,VALID,14,VALID,0.547637,
2004-05-01, 03:05:00,VALID,914.345,VALID,0,VALID,99.9265,VALID,0.0339617,VALID,20.4023,VALID,360,VALID,0.619395,
2004-05-01, 03:06:01,VALID,914.357,VALID,0,VALID,99.9608,VALID,0.101885,VALID,20.4154,VALID,2,VALID,0.325284,
2004-05-01, 03:07:00,VALID,914.374,VALID,0,VALID,99.9608,VALID,0.0509425,VALID,20.4117,VALID,2,VALID,0.199728,
2004-05-01, 03:08:01,VALID,914.381,VALID,0,VALID,99.9596,VALID,0.0339617,VALID,20.409,VALID,2,VALID,0.348474,
2004-05-01, 03:09:00,VALID,914.386,VALID,0,VALID,99.9941,VALID,0.0509425,VALID,20.4221,VALID,359,VALID,0.474077,
2004-05-01, 03:10:00,VALID,914.39,VALID,0,VALID,99.8922,VALID,0.0849042,VALID,20.4162,VALID,353,VALID,0.869913,
2004-05-01, 03:11:01,VALID,914.397,VALID,0,VALID,99.8871,VALID,0.0679233,VALID,20.3858,VALID,360,VALID,0.435138,
2004-05-01, 03:12:00,VALID,914.412,VALID,0,VALID,99.9647,VALID,0.0339617,VALID,20.402,VALID,360,VALID,0.151811,
2004-05-01, 03:13:00,VALID,914.396,VALID,0,VALID,99.9468,VALID,0,VALID,20.4023,VALID,360,VALID,0.208333,
2004-05-01, 03:14:01,VALID,914.4,VALID,0,VALID,99.9896,VALID,0,VALID,20.4219,VALID,1,VALID,0.472098,
2004-05-01, 03:15:01,VALID,914.406,VALID,0,VALID,100,VALID,0.0339617,VALID,20.4243,VALID,1,VALID,0.0626817,
2004-05-01, 03:16:00,VALID,914.397,VALID,0,VALID,100,VALID,0.0679233,VALID,20.4706,VALID,1,VALID,0.0795641,
2004-05-01, 03:17:00,VALID,914.397,VALID,0,VALID,100,VALID,0.0509425,VALID,20.4674,VALID,1,VALID,0.53125,
2004-05-01, 03:18:00,VALID,914.389,VALID,0,VALID,99.9316,VALID,0.0169808,VALID,20.4351,VALID,2,VALID,0.384527,
2004-05-01, 03:19:01,VALID,914.392,VALID,0,VALID,99.8311,VALID,-0.0679233,VALID,20.4068,VALID,2,VALID,0.500762,
2004-05-01, 03:20:00,VALID,914.382,VALID,0,VALID,99.854,VALID,-0.0169808,VALID,20.4108,VALID,1,VALID,0.347565,
2004-05-01, 03:21:00,VALID,914.382,VALID,0,VALID,99.8731,VALID,-0.0849042,VALID,20.411,VALID,2,VALID,0.503811,
2004-05-01, 03:22:00,VALID,914.374,VALID,0,VALID,99.8604,VALID,-0.0509425,VALID,20.3906,VALID,358,VALID,0.52753,
2004-05-01, 03:23:00,VALID,914.366,VALID,0,VALID,99.8884,VALID,-0.0849042,VALID,20.4008,VALID,8,VALID,0.520647,
2004-05-01, 03:24:01,VALID,914.367,VALID,0,VALID,99.8426,VALID,-0.0339617,VALID,20.3842,VALID,360,VALID,0.536914,
2004-05-01, 03:25:00,VALID,914.363,VALID,0,VALID,99.8108,VALID,-0.101885,VALID,20.3685,VALID,360,VALID,0.368056,
2004-05-01, 03:26:01,VALID,914.345,VALID,0,VALID,99.8477,VALID,-0.0339617,VALID,20.3553,VALID,359,VALID,0.330915,
2004-05-01, 03:27:00,VALID,914.354,VALID,0,VALID,99.8566,VALID,-0.0509425,VALID,20.3454,VALID,350,VALID,0.520419,
2004-05-01, 03:28:00,VALID,914.336,VALID,0,VALID,99.8782,VALID,-0.0169808,VALID,20.3459,VALID,348,VALID,0.133903,
2004-05-01, 03:29:01,VALID,914.327,VALID,0,VALID,99.9379,VALID,-0.0169808,VALID,20.3548,VALID,349,VALID,0.396234,
2004-05-01, 03:30:00,VALID,914.306,VALID,0,VALID,99.9896,VALID,-0.0509425,VALID,20.382,VALID,355,VALID,0.460747,
2004-05-01, 03:31:00,VALID,914.315,VALID,0,VALID,99.9583,VALID,-0.0849042,VALID,20.3723,VALID,7,VALID,0.688101,
2004-05-01, 03:32:00,VALID,914.302,VALID,0,VALID,99.9303,VALID,-0.0849042,VALID,20.3623,VALID,14,VALID,0.72532,
2004-05-01, 03:33:00,VALID,914.288,VALID,0,VALID,99.9647,VALID,-0.0679233,VALID,20.3685,VALID,16,VALID,0.550223,
2004-05-01, 03:34:00,VALID,914.275,VALID,0,VALID,99.9977,VALID,-0.0679233,VALID,20.378,VALID,16,VALID,0.354567,
2004-05-01, 03:35:01,VALID,914.273,VALID,0,VALID,99.9583,VALID,-0.0849042,VALID,20.3884,VALID,16,VALID,0.360119,
2004-05-01, 03:36:00,VALID,914.265,VALID,0,VALID,99.9774,VALID,-0.0849042,VALID,20.3879,VALID,16,VALID,0.457849,